• MPC Preparation (Info)

  • MPEC 2005-B16 : 2005 BM1

    The following Minor Planet Electronic Circular may be linked-to from your own Web pages, but must not otherwise be redistributed electronically.

    A form allowing access to any MPEC is at the bottom of this page.


    Read MPEC 2005-B15 Read MPEC 2005-B17


    M.P.E.C. 2005-B16                                Issued 2005 Jan. 17, 23:55 UT
    
         The Minor Planet Electronic Circulars contain information on unusual
             minor planets and routine data on comets.  They are published
       on behalf of Commission 20 of the International Astronomical Union by the
              Minor Planet Center, Smithsonian Astrophysical Observatory,
                              Cambridge, MA 02138, U.S.A.
    
                      Supported in part by the Brinson Foundation
                 Prepared using the Tamkin Foundation Computer Network
    
                                  MPC@CFA.HARVARD.EDU
              URL http://cfa-www.harvard.edu/iau/mpc.html  ISSN 1523-6714
    
                                       2005 BM1
    
    Observations:
         K05B01M* C2005 01 16.34818 09 08 07.05 +23 48 05.6          19.8   EB016704
         K05B01M  C2005 01 16.36119 09 07 46.00 +23 42 35.1          19.4   EB016704
         K05B01M  C2005 01 16.37423 09 07 24.89 +23 37 03.2          19.5   EB016704
         K05B01M  C2005 01 16.38773 09 07 03.23 +23 31 20.4          19.7   EB016704
         K05B01M  C2005 01 16.40075 09 06 42.31 +23 25 48.2          19.6   EB016704
         K05B01M  C2005 01 17.27361 08 46 55.30 +17 30 58.1          19.2   EB016704
         K05B01M  C2005 01 17.28868 08 46 34.94 +17 25 09.0          19.9   EB016704
         K05B01M  C2005 01 17.30322 08 46 15.33 +17 19 32.7          19.8   EB016704
         K05B01M  C2005 01 17.31764 08 45 55.99 +17 13 57.8          19.8   EB016704
         K05B01M  C2005 01 17.33187 08 45 37.01 +17 08 29.6          19.4   EB016704
         K05B01M  C2005 01 17.95966 08 33 30.67 +13 14 46.5                 EB016246
         K05B01M  C2005 01 17.96034 08 33 29.84 +13 14 31.0                 EB016246
         K05B01M  C2005 01 17.96169 08 33 28.25 +13 14 01.7                 EB016246
    
    Observer details:
    246 Klet Observatory-KLENOT.  Observer M. Tichy.  1.06-m KLENOT Telescope
        + CCD.
    704 Lincoln Laboratory ETS, New Mexico.  Observers M. Blythe, F. Shelly,
        M. Bezpalko, R. Huber, L. Manguso, D. Torres, R. Kracke, M. McCleary,
        H. Stange, A. Milner.  Measurers J. Stuart, R. Sayer, J. Evans, J. Kommers.
        1.0-m f/2.15 reflector + CCD.
    
    Orbital elements:
    2005 BM1
    Epoch 2005 Jan. 10.0 TT = JDT 2453380.5                 MPC
    M  76.39832              (2000.0)            P               Q
    n   0.97342780     Peri.   78.15836     +0.93316791     -0.27662981
    a   1.0083243      Node   297.53146     +0.13321112     +0.85920481
    e   0.1608077      Incl.   14.99984     +0.33384494     +0.43039869
    P   1.01           H   25.5           G   0.15
    From 13 observations 2005 Jan. 16-17.
    
    Ephemeris:
    2005 BM1                 a,e,i = 1.01, 0.16, 15                  q = 0.8462
    Date    TT    R. A. (2000) Decl.     Delta      r     Elong.  Phase     V
    2005 01 10    13 22.94   +54 23.3    0.038    0.996   108.1    69.8    20.8
    2005 01 11    12 39.16   +53 06.5    0.035    0.999   114.8    63.4    20.5
    2005 01 12    11 52.28   +50 26.6    0.032    1.001   122.6    55.8    20.1
    2005 01 13    11 06.00   +46 09.6    0.031    1.004   131.5    47.2    19.7
    2005 01 14    10 23.73   +40 21.7    0.030    1.007   141.1    37.9    19.4
    2005 01 15    09 47.39   +33 30.9    0.030    1.010   150.7    28.4    19.1
    2005 01 16    09 17.26   +26 17.9    0.031    1.012   159.7    19.7    18.9
    2005 01 17    08 52.71   +19 20.5    0.032    1.015   166.6    13.0    18.8
    2005 01 18    08 32.76   +13 03.2    0.035    1.018   169.2    10.5    18.9
    2005 01 19    08 16.49   +07 36.3    0.038    1.021   166.9    12.6    19.2
    2005 01 20    08 03.11   +02 59.6    0.041    1.023   162.8    16.5    19.5
    2005 01 21    07 52.01   -00 51.9    0.045    1.026   158.6    20.5    19.8
    2005 01 22    07 42.71   -04 05.0    0.049    1.029   154.8    24.1    20.1
    2005 01 23    07 34.85   -06 46.4    0.053    1.031   151.4    27.2    20.4
    2005 01 24    07 28.15   -09 01.9    0.058    1.034   148.4    29.9    20.7
    2005 01 25    07 22.40   -10 56.1    0.062    1.037   145.8    32.3    20.9
    2005 01 26    07 17.44   -12 33.1    0.067    1.039   143.5    34.3    21.1
    2005 01 27    07 13.13   -13 55.9    0.072    1.042   141.4    36.1    21.3
    2005 01 28    07 09.36   -15 06.8    0.077    1.045   139.6    37.7    21.5
    2005 01 29    07 06.07   -16 08.0    0.082    1.047   137.9    39.1    21.7
    2005 01 30    07 03.18   -17 00.9    0.087    1.050   136.4    40.3    21.9
    
    Timothy B. Spahr             (C) Copyright 2005 MPC           M.P.E.C. 2005-B16
    

    Read MPEC 2005-B15 Read MPEC 2005-B17


    MPEC number:

    Enter an MPEC number in one of the following forms:

    • 1997-B01 (the full form)
    • J97B01 (the packed version of the full form)
    • B01 (the abbreviated form)